Effective Sunday, March 17, 2024, the National Weather Service National Data Buoy Center will discontinue its Dial-A-Buoy Interactive Voice Response system. For more information, see Service Change Notice 24-06 (PDF).

Station ACXS1 - Bennett's Point, ACE Basin Reserve, SC Image indicating link to RSS feed of recent meteorological observations for station ACXS1


Conditions at ACXS1 as of
(7:45 am EST)
1245 GMT on 03/03/2024:
     

Click on the graph icon in the table below to see a time series plot of the last five days of that observation.

5-day plot - Wind Direction Wind Direction (WDIR):NNW ( 340 deg true )
5-day plot - Wind Speed Wind Speed (WSPD): 1.0 kts
5-day plot - Atmospheric Pressure Atmospheric Pressure (PRES):30.21 in
5-day plot - Air Temperature Air Temperature (ATMP): 60.1 °F
5-day plot - Dew Point Dew Point (DEWP): 60.1 °F
5-day plot -  Wind Speed, Wind Gust and Atmospheric Pressure Combined plot of Wind Speed, Gust, and Air Pressure
Previous observations
TIME
(EST)
5-day plot - Wind Direction
WDIR
 
5-day plot - Wind Speed
WSPD
kts
5-day plot - Wind Gust
GST
kts
5-day plot - Wave Height
WVHT
ft
5-day plot - Dominant Wave Period
DPD
sec
5-day plot - Average Wave Period
APD
sec
5-day plot - Mean Wave Direction
MWD
 
5-day plot - Atmospheric Pressure
PRES
in
5-day plot - Pressure Tendency
PTDY
in
5-day plot - Air Temperature
ATMP
°F
5-day plot - Water Temperature
WTMP
°F
5-day plot - Dew Point
DEWP
°F
5-day plot - Salinity
SAL
psu
5-day plot - Visibility
VIS
nmi
5-day plot - Tide (above MLLW)
TIDE
ft
2024-03-03 07:30 am- 0.0-----30.21- 60.1- 60.1---
2024-03-03 07:15 am- 0.0-----30.21- 60.1- 60.1---
2024-03-03 07:00 am- 0.0-----30.18+0.00 59.9- 59.9---
2024-03-03 06:45 am- 0.0-----30.18- 59.9- 59.9---
2024-03-03 06:30 am- 0.0-----30.18- 59.7- 59.7---
2024-03-03 06:15 amNNW 1.0-----30.18- 59.5- 59.5---
2024-03-03 06:00 am- 0.0-----30.18+0.00 59.4- 59.4---
2024-03-03 05:45 am- 0.0-----30.18- 59.2- 59.2---
2024-03-03 05:30 am- 0.0-----30.18- 59.0- 59.0---
2024-03-03 05:15 am NW 1.0-----30.18- 58.8- 58.8---
2024-03-03 05:00 am- 0.0-----30.18+0.00 58.8- 58.8---
2024-03-03 04:45 am- 0.0-----30.18- 58.8- 58.8---
2024-03-03 04:30 am- 0.0-----30.18- 58.5- 58.5---
2024-03-03 04:15 am- 0.0-----30.18- 58.5- 58.5---
2024-03-03 04:00 am- 0.0-----30.18+0.00 58.1- 58.1---
2024-03-03 03:45 am- 0.0-----30.18- 57.7- 57.7---
2024-03-03 03:30 am- 0.0-----30.18- 57.4- 57.4---
2024-03-03 03:15 am- 0.0-----30.18- 57.7- 57.7---
2024-03-03 03:00 am- 0.0-----30.18+0.00 58.1- 58.1---
2024-03-03 02:45 am- 0.0-----30.18- 58.5- 58.5---
2024-03-03 02:30 am- 0.0-----30.18- 58.1- 58.1---
2024-03-03 02:15 am- 0.0-----30.18- 57.6- 57.6---
2024-03-03 02:00 am- 0.0-----30.18+0.00 57.6- 57.6---
2024-03-03 01:45 am- 0.0-----30.18- 58.3- 58.3---
2024-03-03 01:30 am- 0.0-----30.18- 58.3- 58.3---
2024-03-03 01:15 am- 0.0-----30.18- 58.3- 58.3---
2024-03-03 01:00 am- 0.0-----30.18- 58.6- 58.6---
2024-03-03 12:45 am- 0.0-----30.18- 58.6- 58.6---
2024-03-03 12:30 am- 0.0-----30.18- 58.6- 58.3---
2024-03-03 12:15 am- 0.0-----30.18- 58.5- 58.1---
2024-03-03 12:00 am- 0.0-----30.18+0.00 58.5- 58.1---
2024-03-02 11:45 pm- 0.0-----30.18- 58.5- 58.1---
2024-03-02 11:30 pm- 0.0-----30.18- 58.6- 58.3---
2024-03-02 11:15 pm- 0.0-----30.18- 58.5- 58.1---
2024-03-02 11:00 pm- 0.0-----30.18+0.00 59.2- 58.8---
2024-03-02 09:45 pm- 0.0-----30.18- 60.3- 59.7---
2024-03-02 09:30 pm- 0.0-----30.18- 60.6- 60.1---
2024-03-02 09:15 pm- 0.0-----30.18- 60.6- 60.1---
2024-03-02 09:00 pm- 0.0-----30.18+0.03 60.8- 59.9---
2024-03-02 08:45 pm- 0.0-----30.18- 61.0- 60.1---
2024-03-02 08:30 pm- 0.0-----30.18- 60.8- 59.9---
2024-03-02 08:15 pm- 0.0-----30.18- 60.8- 59.9---
2024-03-02 08:00 pm- 0.0-----30.18+0.03 61.2- 60.3---
2024-03-02 07:45 pm- 0.0-----30.18- 61.5- 60.4---
2024-03-02 07:30 pm- 0.0-----30.18- 61.7- 60.6---
2024-03-02 07:15 pm- 0.0-----30.18- 61.9- 60.8---
2024-03-02 07:00 pm- 0.0-----30.18+0.03 62.1- 60.6---
2024-03-02 06:45 pm- 0.0-----30.18- 62.2- 60.8---
2024-03-02 06:30 pm- 0.0-----30.18- 62.2- 60.4---
2024-03-02 06:15 pm- 0.0-----30.15- 62.4- 60.4---
2024-03-02 06:00 pm- 0.0-----30.15-0.03 63.1- 60.8---
2024-03-02 05:45 pm- 0.0-----30.15- 63.3- 60.6---
2024-03-02 05:30 pm- 0.0-----30.15- 63.7- 61.0---
2024-03-02 05:15 pm- 0.0-----30.15- 63.7- 61.0---
2024-03-02 05:00 pm- 0.0-----30.15-0.03 63.1- 60.8---
2024-03-02 04:45 pm- 0.0-----30.15- 63.1- 60.4---
2024-03-02 04:30 pm- 0.0-----30.15- 63.3- 60.6---
2024-03-02 04:15 pm- 0.0-----30.15- 63.3- 61.0---
2024-03-02 04:00 pmSSE 1.0-----30.15-0.06 62.6- 60.6---
2024-03-02 03:45 pm- 0.0-----30.15- 61.9- 60.1---
2024-03-02 03:30 pm S 1.0-----30.15- 61.7- 59.7---
2024-03-02 03:15 pm S 1.0-----30.15- 61.3- 59.4---
2024-03-02 03:00 pm S 1.9-----30.18-0.03 62.1- 59.7---
2024-03-02 02:45 pm- 0.0-----30.18- 63.3- 60.4---
2024-03-02 02:30 pm SW 1.9-----30.18- 64.4- 61.2---
2024-03-02 02:15 pm SW 1.0-----30.18- 64.4- 61.2---
2024-03-02 02:00 pm SW 1.9-----30.18-0.03 63.5- 60.6---
2024-03-02 01:45 pm SW 1.0-----30.18- 63.5- 60.8---
2024-03-02 01:30 pmSSW 1.9-----30.18- 63.7- 60.8---
2024-03-02 01:15 pmSSW 1.0-----30.18- 64.6- 61.3---
2024-03-02 01:00 pm S 1.0-----30.21+0.00 64.9- 61.0---
2024-03-02 12:45 pm- 0.0-----30.21- 64.8- 61.2---
2024-03-02 12:30 pmWSW 1.9-----30.21- 63.1- 60.4---
2024-03-02 12:15 pmSSE 1.0-----30.21- 62.6- 60.3---
2024-03-02 12:00 pmSSE 1.0-----30.21+0.00 62.8- 60.1---
2024-03-02 11:45 am- 0.0-----30.21- 63.3- 60.6---
2024-03-02 11:30 am- 0.0-----30.21- 63.7- 61.0---
2024-03-02 11:15 am- 0.0-----30.21- 62.4- 60.4---
2024-03-02 11:00 am- 0.0-----30.21+0.03 61.3- 59.9---
2024-03-02 10:45 am- 0.0-----30.21- 60.6- 59.7---
2024-03-02 10:30 am- 0.0-----30.21- 60.1- 59.5---
2024-03-02 10:15 am- 0.0-----30.21- 60.1- 59.7---
2024-03-02 10:00 am- 0.0-----30.21+0.03 59.4- 59.4---
2024-03-02 09:45 am- 0.0-----30.21- 59.0- 59.0---
2024-03-02 09:30 amNNW 1.9-----30.21- 58.8- 58.8---
2024-03-02 09:15 am NW 1.9-----30.21- 58.5- 58.5---
2024-03-02 09:00 am- 0.0-----30.21+0.03 58.1- 58.1---
2024-03-02 08:45 am NW 1.0-----30.21- 57.6- 57.6---
2024-03-02 08:30 am- 0.0-----30.18- 57.6- 57.6---
2024-03-02 08:15 am- 0.0-----30.18- 57.6- 57.6---
2024-03-02 08:00 am- 0.0-----30.18+0.03 57.4- 57.4---